Location: Oshawa
(43.9000°N, 78.8670°W)
Time: 22:26:21
(UTC-04:00)

Cosmos 1821 Rocket - Visible Passes

Search period start: 22 August 2017 00:00
Search period end: 01 September 2017 00:00
Orbit: 945 x 1005 km, 82.9° (Epoch: 22 August)

Date Brightness Start Highest point End Pass type
(mag) Time Alt. Az. Time Alt. Az. Time Alt. Az.
22 Aug 5.1 02:07:04 34° E 02:07:04 34° E 02:12:28 10° NNE visible
22 Aug 4.6 03:51:44 38° W 03:52:15 39° WNW 03:58:01 10° N visible
23 Aug 4.3 02:32:26 59° ENE 02:32:26 59° ENE 02:38:10 10° NNE visible
23 Aug 5.3 04:17:06 22° W 04:17:54 23° WNW 04:22:41 10° NNW visible
24 Aug 6.0 01:13:07 16° ENE 01:13:07 16° ENE 01:16:21 10° NE visible
24 Aug 4.0 02:57:47 74° NW 02:57:47 74° NW 03:03:32 10° N visible
24 Aug 5.8 04:42:27 12° WNW 04:43:45 13° WNW 04:46:27 10° NW visible
25 Aug 5.4 01:38:28 28° ENE 01:38:28 28° ENE 01:42:48 10° NNE visible
25 Aug 4.5 03:23:08 45° WNW 03:23:08 45° WNW 03:28:39 10° N visible
26 Aug 4.8 02:03:48 45° ENE 02:03:48 45° ENE 02:08:36 10° NNE visible
26 Aug 5.2 03:48:28 26° WNW 03:48:28 26° WNW 03:53:25 10° NNW visible
27 Aug 6.2 00:44:27 13° ENE 00:44:27 13° ENE 00:46:14 10° NE visible
27 Aug 4.4 02:29:06 60° N 02:29:06 60° N 02:34:03 10° N visible
27 Aug 5.8 04:13:47 15° WNW 04:14:06 15° WNW 04:17:33 10° NNW visible
28 Aug 5.7 01:09:45 22° ENE 01:09:45 22° ENE 01:13:05 10° NNE visible
28 Aug 4.6 02:54:25 46° NW 02:54:25 46° NW 02:59:14 10° N visible
29 Aug 5.2 01:35:03 35° NE 01:35:03 35° NE 01:39:01 10° NNE visible
29 Aug 5.2 03:19:43 29° NW 03:19:43 29° NW 03:24:06 10° N visible
30 Aug 6.4 00:15:40 10° ENE 00:15:40 10° ENE 00:15:42 10° ENE visible
30 Aug 4.8 02:00:20 46° NNE 02:00:20 46° NNE 02:04:33 10° N visible
30 Aug 5.7 03:45:00 17° WNW 03:45:00 17° WNW 03:48:28 10° NNW visible
31 Aug 6.0 00:40:57 18° ENE 00:40:57 18° ENE 00:43:18 10° NE visible
31 Aug 4.9 02:25:36 43° NNW 02:25:36 43° NNW 02:29:47 10° N visible
